Hlavní strana
METAR-TAF:

METAR-TAF

Letiště :

Mount Carmel Municipal Airport

Mount Carmel, Illinois, Spojené státy americké

zeměpisná šířka: 38-36-23N, zeměpisná délka: 087-43-36W, výška: 131 m

Aktuální stav počasí

Zpráva byla vytvořena před 22 minutami, v 01:55 UTC
Severozápadní vítr 6 kt
Teplota 6°C
Vlhkost vzduchu 81%
Tlak 1016 hPa
Viditelnost: 16.1 km
Oblačno až skoro zataženo ve výšce 2000 ft
Zataženo ve výšce 2500 ft

METAR: KAJG 200155Z AUTO 32006KT 10SM BKN020 OVC025 06/03 A2999 RMK AO2 T00600031

Čas: 20:17 (02:17 UTC)


TAF: chybějící

Stav a předpovědi počasí z více než 4 000 letišť (zprávy METAR a TAF).

Červené a žluté tečky na mapě představují dostupné meteorologické stanice.

Když kurzor umístíte na tečku, zobrazí se název stanice.

Pak kliknutím zobrazíte stav a předpověď počasí.

Chcete-li změnit mapu, kliknutím na zelené tlačítko se znaménkem +mapu přiblížíte, kliknutím na zelené tlačítko se znaménkem – mapu oddálíte a kliknutím na zelené šipky přejdete na sousední mapy.


METAR-TAF: